Location: Berzhausen
(50.6552°N, 7.5703°E)
Time: 14:22:17
(UTC+00:00)

Daily predictions for brighter satellites

Satellite Brightness Start Highest point End
(mag) Time Altitude Azimuth Time Altitude Azimuth Time Altitude Azimuth
Cosmos 2322 Rocket 3.3 15:54:22 10° WSW 15:59:39 40° NW 16:04:58 10° NNE
Cosmos 1400 Rocket 3.6 15:55:54 10° SSW 15:59:54 55° WNW 16:03:54 10° N
Radarsat Rocket 4.0 15:53:52 10° SSE 15:59:56 76° ENE 16:05:45 10° NNW
Landsat 5 4.3 15:56:40 10° N 16:00:29 48° WNW 16:04:24 10° SW
H-2A R/B 3.8 15:57:35 10° N 16:01:05 27° WNW 16:04:33 10° WSW
YAOGAN 1 4.4 16:04:06 10° ENE 16:05:10 11° NE 16:06:14 10° NE
Cosmos 1812 3.9 16:02:04 10° SE 16:05:11 23° E 16:08:18 10° NE
Envisat 4.0 16:01:23 10° ESE 16:05:27 25° ENE 16:09:33 10° N
Helios 1A Rocket 2.9 16:02:10 10° SSE 16:06:17 88° ENE 16:10:24 10° NNW
COSMOS 2455 3.8 16:00:47 10° WSW 16:06:27 41° NW 16:12:09 10° NNE
SL-16 R/B 3.6 16:02:55 10° WSW 16:08:00 33° NW 16:13:07 10° NNE
Cosmos 2219 Rocket 2.4 16:03:05 10° S 16:08:35 59° ESE 16:14:08 10° NE
ATLAS 3B R/B 3.9 16:02:57 10° NW 16:09:20 49° WSW 16:15:53 10° SSE
Cosmos 1844 Rocket 4.4 16:04:47 10° NW 16:09:53 37° WSW 16:14:59 10° S
YAOGAN 6 4.4 16:10:15 10° E 16:11:53 13° ENE 16:13:33 10° NNE
Cosmos 1340 3.4 16:08:47 10° NNW 16:12:31 58° W 16:16:14 10° S
Cosmos 1733 Rocket 3.2 16:08:29 10° N 16:12:45 50° ENE 16:17:02 10° SSE
IRS-1C Rocket 4.2 16:07:44 10° SE 16:12:50 53° ENE 16:17:58 10° N
Cosmos 1992 Rocket 4.1 16:08:44 10° NNW 16:13:52 53° ENE 16:18:59 10° SE
Meteor 1-11 Rocket 4.0 16:08:38 10° N 16:14:32 56° ENE 16:20:22 10° SSE
USA 267 3.4 16:08:34 10° SE 16:15:08 81° SSW 16:21:43 10° WNW
CZ-4B R/B 2.2 16:12:11 10° N 16:15:39 56° WNW 16:19:03 10° SSW
Exosat Rocket 4.2 16:11:11 10° S 16:15:53 34° ESE 16:20:25 10° NE
Cosmos 1500 3.5 16:13:03 10° N 16:16:42 44° ENE 16:20:17 10° SSE
Cosmos 1943 Rocket 3.6 16:14:02 10° N 16:17:48 18° NNE 16:21:31 10° ENE
NOSS 3-4 (A) 3.6 16:12:56 10° SW 16:19:01 81° NW 16:25:33 10° NE
NOSS 3-4 (C) 3.6 16:13:02 10° SW 16:19:07 82° NW 16:25:40 10° NE
Meteor 1-27 Rocket 4.3 16:15:01 10° SSE 16:20:17 39° E 16:25:41 10° NNE
BREEZE-M DEB (TANK) 3.1 16:16:04 10° W 16:23:59 65° SSW 16:26:51 10° ESE
Cosmos 1867 4.4 16:20:01 10° NNW 16:24:50 30° NNE 16:29:38 10° E
Cosmos 1980 4.3 16:21:58 10° S 16:27:05 37° ESE 16:32:12 10° NE
ATLAS 5 CENTAUR R/B 2.9 16:27:53 10° SSE 16:28:50 12° SE 16:29:34 11° ESE
Cosmos 2297 4.2 16:25:49 10° NNW 16:31:08 37° NE 16:36:23 10° ESE
RESURS DK-1 2.3 16:29:06 10° SSW 16:33:12 75° ESE 16:37:12 11° NE
Cosmos 921 Rocket 4.0 16:31:08 10° N 16:34:43 25° ENE 16:38:19 10° ESE
Cosmos 1441 Rocket 4.3 16:32:22 10° NNE 16:35:31 23° ENE 16:38:36 10° ESE
NOSS 0 Rocket 4.2 16:30:22 10° S 16:36:21 51° ESE 16:42:17 10° NE
H-2A R/B 2.6 16:33:04 10° SSE 16:36:42 59° ENE 16:40:21 10° N
Cosmos 1689 Rocket 3.1 16:33:46 10° N 16:36:43 47° WNW 16:39:39 10° SSW
Cosmos 1782 Rocket 4.4 16:39:46 10° N 16:43:29 26° ENE 16:47:09 10° SE
Feng Yun 1-1 Rocket 4.1 16:40:41 10° SSE 16:46:04 87° ENE 16:51:32 10° NNW
COSMOS 2428 2.8 16:40:55 10° SSW 16:46:36 80° WNW 16:52:21 10° NNE
Ariane Rocket 4.5 16:49:09 16° NE 16:49:09 16° NE 16:51:55 10° NNE
Meteor 1-5 Rocket 4.4 16:43:58 10° NNW 16:49:32 72° W 16:54:53 10° S
Cosmos 1536 2.7 16:46:38 10° N 16:50:40 68° ENE 16:54:38 10° SSE
Cosmos 1862 Rocket 3.5 16:50:01 10° S 16:54:21 75° E 16:58:46 10° NNE
Genesis I 3.2 16:50:49 10° NW 16:54:42 56° NE 16:58:25 10° ESE
ATLAS 2AS CENTAUR R/B 3.6 16:49:16 10° WSW 16:57:07 53° NNW 17:03:59 14° NE
Cosmos 1703 Rocket 4.3 16:53:35 10° SSE 16:57:33 32° E 17:00:17 17° NE
Okean O Rocket 3.8 16:55:45 10° SSW 16:59:31 28° W 17:03:18 10° NW
Cosmos 1666 2.6 16:57:24 10° N 17:01:06 58° ENE 17:04:48 10° SSE
STARLINK-67 2.9 16:59:51 10° W 17:02:34 50° N 17:03:16 38° NE
SeaSat 1 3.9 17:02:16 18° NE 17:02:41 18° NE 17:05:57 10° N
Cosmos 1092 Rocket 4.1 16:57:31 10° SSE 17:03:36 53° E 17:09:39 10° NNE
Lacrosse 5 rocket 1.3 16:59:44 10° SW 17:04:01 85° SE 17:06:10 27° ENE
Cosmos 2242 Rocket 3.6 17:01:49 10° S 17:06:19 64° E 17:10:53 10° NNE
SL-4 R/B 1.8 17:07:41 10° W 17:11:28 85° N 17:13:11 33° ENE
Cosmos 2278 Rocket 3.2 17:06:03 10° NW 17:11:30 49° WSW 17:16:55 10° S
Aureole 1 Rocket 3.0 17:08:50 10° S 17:11:21 32° ESE 17:11:21 32° ESE
CZ-4 R/B 1.6 17:08:50 10° SE 17:12:31 42° ENE 17:16:11 10° N
FengYun 1-2 T 4.1 17:10:01 10° SSE 17:15:26 65° ENE 17:20:55 10° N
Shenzhou-11 Module 4.5 17:14:18 10° SW 17:15:51 14° S 17:17:19 10° SSE
Okean-O 2.6 17:12:58 10° SSE 17:17:23 84° WSW 17:21:52 10° NNW
STARLINK-46 2.4 17:14:50 10° W 17:17:29 71° NNW 17:17:37 68° NNE
Cosmos 2360 Rocket 4.0 17:13:02 10° W 17:17:40 25° NW 17:22:19 10° NNE
SMAP 4.1 17:15:06 10° S 17:19:36 49° W 17:24:09 10° NNW
NOAA 12 4.3 17:16:35 10° S 17:21:54 77° WSW 17:27:13 10° NNW
USA 215 3.3 17:17:57 23° ENE 17:22:17 77° NNW 17:28:49 10° WSW
Cosmos 2344 4.4 17:15:19 10° NW 17:23:43 49° NNE 17:30:40 23° E
STARLINK-29 4.4 17:20:52 10° SSW 17:23:55 28° SE 17:24:05 28° SE
Cosmos 2369 Rocket 2.9 17:19:33 10° NNW 17:24:35 32° NE 17:25:28 30° ENE
Cosmos 1743 2.8 17:23:00 10° N 17:26:46 49° ENE 17:30:32 10° SSE
Cosmos 1908 Rocket 3.7 17:22:31 10° NNW 17:26:56 75° W 17:31:17 10° S
ISS -0.7 17:26:21 10° WSW 17:28:19 15° SW 17:30:16 10° S
SL-16 R/B 2.6 17:24:05 10° S 17:29:21 41° ESE 17:30:56 33° ENE
COSMO-SKYMED 1 2.6 17:29:39 34° NE 17:31:14 54° E 17:35:29 10° S
S3M 4.3 17:26:53 10° N 17:32:46 41° ENE 17:38:33 10° SE
Cosmos 2251 Rocket 4.0 17:28:10 10° SW 17:33:25 61° WNW 17:37:47 15° NNE
Cosmos 614 Rocket 4.3 17:29:23 10° S 17:34:10 43° ESE 17:34:59 39° E
Cosmos 2333 Rocket 3.4 17:33:04 10° WSW 17:38:25 38° NW 17:43:07 13° NNE
STARLINK-60 3.6 17:35:57 10° SW 17:38:58 46° SSE 17:38:58 46° SSE
Cosmos 2237 Rocket 2.3 17:34:06 10° SW 17:39:48 77° WNW 17:43:32 23° NNE
YAOGAN 1 2.4 17:36:10 10° SSE 17:40:27 67° ENE 17:44:47 10° N
Cosmos 1812 4.4 17:37:19 10° SW 17:40:50 33° WNW 17:44:23 10° N
Envisat 3.6 17:39:09 10° S 17:44:09 58° W 17:49:12 10° NNW
Cosmos 1428 Rocket 4.4 17:38:40 10° S 17:44:46 67° E 17:50:59 10° NNE
YAOGAN 6 2.8 17:41:22 10° S 17:44:54 67° W 17:48:30 10° NNW
Okean 1-7 2.9 17:40:48 10° S 17:45:08 78° E 17:46:42 39° NNE
Cosmos 2322 Rocket 4.5 17:42:36 10° NW 17:45:23 14° NNW 17:48:11 10° N
Cosmos 1553 Rocket 4.0 17:39:38 10° N 17:45:59 65° ENE 17:52:21 10° SSE
Cosmos 1140 Rocket 4.1 17:46:38 10° S 17:50:28 37° SE 17:50:28 37° SE
Cosmos 2219 Rocket 3.7 17:47:54 10° WSW 17:52:54 32° NW 17:57:01 14° NNE
Cosmos 407 Rocket 3.4 17:49:21 10° S 17:54:27 60° ESE 17:55:06 56° ENE
SKYMED 3 4.5 17:54:05 44° NNE 17:55:27 88° W 17:59:47 10° SSW
NOSS 3-1 (C) 4.1 17:50:28 10° NW 17:57:25 54° NE 17:59:49 41° E
IRS-1A Rocket 4.4 18:01:26 51° ENE 18:01:36 52° ENE 18:07:19 10° N
Cosmos 489 Rocket 4.4 17:55:55 10° NNW 18:02:19 81° ENE 18:08:07 13° SSE
Cosmos 1943 Rocket 2.1 17:57:11 10° NNW 18:02:47 60° NE 18:03:07 59° ENE
Cosmos 2026 Rocket 3.9 17:56:58 10° S 18:03:01 84° W 18:09:09 10° N
USA 229 DEB 3.9 17:59:08 10° NW 18:06:11 57° NE 18:07:49 48° E
USA 229 3.9 17:59:15 10° NW 18:06:16 57° NE 18:07:53 48° E
Cosmos 1867 3.5 18:03:32 10° NW 18:09:01 82° SW 18:10:40 47° SSE
BREEZE-M R/B 3.4 18:05:17 10° W 18:09:04 49° WSW 18:09:04 49° WSW
NOSS 3-1 (A) 4.2 18:04:35 10° NW 18:11:25 49° NNE 18:12:35 45° ENE
CSL-04 Rocket 3.8 18:07:02 10° S 18:12:17 70° WSW 18:17:37 10° NNW
Cosmos 921 Rocket 4.2 18:09:07 10° NNW 18:13:10 42° WSW 18:17:15 10° S
Cosmos 1417 Rocket 4.4 18:11:04 10° N 18:17:14 84° W 18:23:23 10° S
SKYMED 2 4.2 18:18:20 42° NNW 18:19:23 53° WNW 18:23:36 10° SSW
Ariane Rocket 4.0 18:29:22 35° N 18:29:22 35° N 18:32:15 10° NNW
Meteor 1-18 Rocket 4.3 18:24:25 10° SSW 18:30:08 73° WNW 18:31:59 43° N
Cosmos 1655 Rocket 3.9 18:30:04 10° S 18:36:23 87° E 18:37:01 74° NNE
SeaSat 1 3.9 18:42:04 28° NNW 18:42:04 28° NNW 18:44:24 10° NNW
Lacrosse 5 rocket 3.3 18:39:38 10° W 18:41:49 25° WNW 18:41:49 25° WNW
CZ-4 R/B 3.9 18:44:50 10° SW 18:47:45 20° W 18:50:39 10° NW
ATLAS 2AS CENTAUR R/B 4.0 18:42:48 10° WNW 18:49:52 32° N 18:51:25 30° NNE
SL-4 R/B 4.3 18:47:15 10° W 18:48:47 23° WNW 18:48:47 23° WNW
USA 215 3.7 19:05:18 52° NNW 19:05:18 52° NNW 19:11:16 10° WNW
Cosmos 2369 Rocket 3.2 19:03:26 10° NW 19:07:18 42° WNW 19:07:18 42° WNW
SL-16 R/B 3.3 19:08:04 10° WSW 19:12:52 42° WNW 19:12:52 42° WNW
Cosmos 2237 Rocket 4.2 19:20:35 10° W 19:24:51 21° NW 19:25:23 21° NNW
Cosmos 2344 4.4 19:29:46 10° NW 19:39:16 78° SW 19:40:45 70° S
Cosmos 1943 Rocket 4.2 19:41:29 10° NW 19:44:42 24° WNW 19:44:42 24° WNW
